Wind_Speed
19 17 16 16 15 15 14 12 10 8 7 7 7 6 5 5 4 4 6 6 6 6 8 9 10 11 10 10 9 9 9 9 9 9 9 9 10 10 11 11 12 11 10 10 12 13 13 12 12 12 12 12 12 11 11 12 13 14 14 14 14 14 13 13 13 12 12 12 11
18 17 15 15 14 14 12 10 8 7 6 6 6 5 5 4 4 5 7 7 7 7 8 8 9 9 9 9 10 10 10 10 9 9 8 8 9 10 10 11 12 11 11 11 12 13 13 13 12 12 12 12 12 11 11 11 12 13 14 14 14 14 13 13 12 11 11 10 10
17 16 15 14 13 12 11 9 8 7 5 5 5 5 5 5 6 6 7 7 7 7 7 7 8 8 8 9 10 10 10 10 10 9 9 9 9 10 10 11 12 12 12 13 13 13 13 13 13 13 13 13 12 12 11 11 12 13 14 14 14 13 13 12 11 11 10 9 8
16 15 15 14 13 12 11 9 8 7 6 5 6 6 7 7 7 7 7 7 7 7 7 7 7 8 8 9 9 10 10 10 10 10 10 10 10 11 12 12 13 13 14 14 14 13 14 14 14 14 14 13 12 12 12 12 12 12 13 13 13 12 12 11 11 10 9 8 8
14 15 15 14 13 12 11 9 8 7 6 5 5 5 6 6 7 7 7 7 7 7 7 7 8 8 8 9 9 9 10 10 10 11 11 11 11 12 13 13 14 15 16 15 14 14 14 14 15 14 14 13 13 13 13 13 12 12 12 12 12 12 11 11 10 9 8 8 8
12 12 12 11 10 10 10 9 8 7 6 5 4 4 5 6 7 7 7 7 7 7 7 7 7 8 8 9 9 9 10 10 11 11 12 12 12 13 14 15 16 16 17 17 16 15 15 15 15 15 14 14 14 14 14 14 13 12 12 12 11 11 11 11 10 9 9 9 9
9 8 8 8 8 10 11 11 10 8 7 6 5 6 6 7 8 8 8 8 7 7 7 7 7 8 8 9 9 9 10 10 11 12 12 13 13 14 14 15 16 17 17 17 18 17 17 16 15 15 14 14 14 14 14 14 14 13 13 12 12 12 12 12 12 11 11 11 11
10 10 11 10 11 11 12 12 11 10 9 8 8 7 7 8 8 9 9 8 8 7 7 7 8 8 9 9 9 10 10 10 11 12 13 13 14 14 14 15 15 16 16 17 18 18 18 17 16 15 15 14 15 15 15 15 14 14 14 14 13 13 13 14 13 13 12 12 12
11 11 12 12 12 12 12 12 11 10 10 9 9 8 8 8 9 9 9 8 8 8 8 8 8 9 9 10 10 10 10 11 12 13 13 14 14 14 14 14 15 15 16 16 17 18 18 17 16 16 16 16 16 16 15 14 15 16 16 16 16 15 15 14 14 13 12 12 12
13 12 12 12 12 12 12 12 11 11 10 10 9 9 9 9 9 9 9 8 8 8 8 8 8 9 10 10 11 11 11 12 12 13 14 14 15 15 15 15 15 15 16 16 16 17 17 17 17 18 18 18 18 17 16 16 16 17 18 17 17 16 15 14 13 12 11 11 12
14 13 13 13 12 12 12 12 11 11 11 10 10 9 9 9 9 9 9 8 9 9 8 8 8 9 10 10 11 11 12 12 13 14 15 15 15 15 16 16 16 17 17 17 17 17 18 19 19 20 20 19 19 18 18 17 18 19 19 17 16 16 15 14 13 12 11 11 12
14 14 14 13 13 12 12 12 11 11 11 11 10 10 9 9 9 9 9 9 10 10 9 9 9 10 10 11 11 12 12 13 13 14 15 16 16 17 17 18 18 18 19 19 19 19 20 21 21 22 21 20 20 19 19 19 19 19 18 17 16 15 15 13 12 11 11 11 12
14 14 14 14 13 13 13 13 12 12 12 11 11 10 10 10 10 9 10 10 10 10 10 10 10 10 11 12 13 13 14 14 15 16 16 17 18 18 19 19 20 20 21 21 21 22 22 23 22 22 22 21 20 19 19 18 19 18 18 16 16 15 14 13 11 11 10 10 11
14 14 14 14 14 14 14 14 13 13 12 12 11 11 10 10 10 10 11 11 11 11 11 12 11 12 12 13 14 14 15 15 16 17 18 19 19 20 20 21 21 22 22 23 23 23 23 23 22 21 21 20 19 18 18 17 17 17 16 16 15 15 14 13 11 10 10 10 10
14 14 14 14 14 14 14 14 14 13 13 12 12 11 11 11 11 11 11 11 12 12 13 13 14 14 14 14 15 16 16 17 18 19 19 20 20 20 21 21 22 22 23 23 23 22 22 21 21 20 20 19 19 18 17 17 16 16 15 15 15 15 14 12 11 10 10 9 10
15 14 14 14 14 14 14 14 14 13 13 13 12 12 11 11 11 12 12 12 13 14 15 15 16 16 16 16 16 16 17 17 18 19 19 19 19 20 20 21 21 21 21 22 22 21 21 20 19 19 19 19 18 17 17 16 16 15 15 15 15 14 13 12 10 10 9 9 10
15 14 14 14 14 14 14 14 14 13 13 13 13 13 13 12 13 13 13 13 14 15 15 16 16 16 16 16 15 16 16 17 18 18 18 18 19 19 19 20 20 20 20 20 20 20 19 18 17 17 17 17 16 16 15 14 14 14 13 13 13 12 12 11 10 10 10 10 10
15 15 14 14 14 14 14 14 14 13 13 13 14 14 14 14 14 14 14 14 14 15 15 16 16 15 15 15 15 16 16 17 17 18 18 18 19 19 19 19 19 19 19 19 19 18 18 17 16 16 15 15 14 14 13 13 13 13 12 12 12 11 11 11 11 10 10 10 11
15 15 14 14 14 14 14 14 14 13 14 14 14 15 15 15 15 15 15 15 15 15 15 16 16 16 16 16 16 17 17 17 17 18 18 18 19 19 19 19 19 19 19 19 19 18 17 17 16 16 15 15 15 14 14 14 14 13 13 13 13 12 12 12 11 11 11 10 10
15 14 14 14 14 14 14 14 14 14 14 14 15 15 16 16 17 16 16 15 15 16 16 17 17 17 17 17 18 18 18 17 18 18 18 18 19 19 19 19 19 19 20 20 19 19 18 18 17 17 16 16 16 16 16 15 15 15 14 14 14 14 13 13 12 12 11 10 10
15 14 14 14 14 14 14 14 14 14 14 15 15 16 16 17 18 18 17 16 16 17 18 18 18 17 17 18 18 18 18 18 18 18 18 19 18 18 18 18 19 19 19 18 18 18 18 17 17 16 16 16 16 16 16 16 15 15 15 15 15 14 14 13 12 11 10 9 9
15 15 14 14 14 15 15 15 15 15 15 16 16 16 17 18 19 19 19 19 19 19 19 18 17 17 17 17 17 18 17 18 18 19 19 19 19 18 18 19 19 19 18 18 17 17 17 16 16 15 15 15 15 15 15 15 15 15 15 15 15 14 13 13 12 11 10 9 9
15 15 14 15 15 15 15 15 16 16 16 17 17 17 18 19 20 20 21 20 20 19 18 17 17 16 17 17 18 18 18 18 19 20 20 20 20 19 19 19 19 19 18 18 17 17 16 16 15 15 15 15 15 15 14 14 14 14 15 15 14 14 13 13 12 11 10 10 9
15 15 15 15 15 16 16 16 17 17 18 18 18 18 19 19 20 21 21 21 20 19 18 17 16 17 18 18 19 19 19 19 20 20 20 20 20 20 19 19 19 18 17 17 16 16 15 15 15 14 15 15 14 14 13 13 13 14 14 14 14 13 13 12 11 11 10 10 10
15 16 16 16 16 17 17 18 18 18 18 18 18 19 19 19 20 20 21 21 20 19 18 17 16 16 17 18 18 18 18 18 19 19 19 19 19 19 19 19 18 18 17 16 15 14 14 13 13 13 14 14 14 13 13 13 13 13 13 13 12 12 11 11 11 11 10 10 10
16 17 17 17 18 18 19 19 19 19 19 19 19 19 19 19 20 20 21 21 20 19 18 16 16 15 16 16 17 17 17 16 17 17 17 17 18 18 18 18 18 18 17 16 15 14 14 13 13 13 14 14 13 13 13 13 13 13 12 12 11 11 10 10 10 10 9 9 8
17 18 18 18 19 19 19 19 19 19 19 19 19 19 19 19 20 20 20 21 20 19 18 16 15 15 15 15 15 15 15 15 16 16 16 17 17 17 17 17 17 17 17 16 15 15 14 14 14 14 14 14 14 13 13 13 13 12 12 11 11 10 10 9 9 9 8 7 7
17 18 18 19 19 20 20 20 20 20 19 19 18 18 18 19 19 19 19 19 19 19 18 16 15 15 14 14 15 15 15 16 16 16 17 17 17 17 17 17 17 17 17 16 16 15 15 14 14 14 14 14 13 13 12 12 11 11 10 10 10 9 9 8 8 8 7 7 6
17 18 19 19 19 19 19 20 19 19 19 18 17 17 17 17 17 17 17 17 17 17 16 16 15 15 14 14 15 15 16 16 16 17 17 18 18 18 18 18 18 17 16 16 15 15 14 13 13 13 12 12 11 11 11 10 10 9 9 9 9 8 8 8 8 7 7 6 6
17 17 18 18 18 18 18 18 18 18 18 17 17 16 16 16 16 16 16 16 15 15 15 14 14 14 14 14 14 15 15 16 17 17 18 18 18 18 18 17 17 16 16 15 14 14 13 13 12 12 12 11 11 10 10 9 9 9 9 8 8 8 8 8 7 7 6 6 5
15 16 16 16 16 15 16 16 16 16 16 16 16 16 16 16 16 16 16 15 15 14 14 14 14 14 14 14 14 15 15 16 17 17 18 18 18 18 18 17 17 16 15 14 14 13 13 13 12 12 12 11 11 10 10 9 9 9 9 8 8 8 8 7 7 7 6 6 6
14 14 14 14 14 13 13 14 15 16 16 16 15 15 15 15 15 16 16 16 16 15 15 14 14 15 15 15 15 15 16 16 16 17 17 18 18 18 17 17 16 15 14 14 13 13 13 12 12 12 11 11 10 10 9 9 9 9 9 8 8 8 7 7 7 7 6 6 6
13 13 14 13 13 12 12 12 14 16 16 16 16 15 14 14 14 14 15 15 15 16 16 16 16 16 16 16 16 15 15 15 16 16 17 17 17 17 16 16 15 14 14 13 13 13 12 12 11 11 10 10 9 9 9 9 8 8 8 8 8 7 7 7 7 7 6 6 6
12 13 13 13 13 12 12 11 12 13 14 15 15 15 14 13 12 11 12 12 13 14 15 16 17 16 16 15 14 14 14 14 15 16 16 16 16 16 15 14 14 13 13 13 13 12 12 11 10 10 9 9 9 9 9 9 8 8 8 8 7 7 7 7 7 7 7 6 6
12 12 12 13 13 13 12 11 10 10 11 12 12 11 11 10 10 10 10 11 12 13 14 15 15 15 15 14 13 13 13 14 15 16 16 16 16 15 15 14 13 13 13 13 12 12 11 10 10 9 9 8 8 8 8 8 8 8 8 7 7 7 7 7 7 7 7 6 6
11 11 12 12 12 12 12 11 10 9 9 10 10 9 9 8 9 9 10 11 12 13 14 14 14 14 13 13 13 13 14 15 16 17 16 16 15 14 14 14 13 13 13 13 12 12 11 10 9 8 8 7 7 7 7 7 7 7 7 7 7 7 7 7 7 6 6 5 5
10 11 11 11 11 11 10 9 9 9 9 9 9 9 8 8 8 8 9 11 12 13 13 14 14 14 14 14 14 15 15 16 16 16 15 14 13 13 13 13 13 12 12 12 12 12 11 10 9 8 7 6 6 6 6 6 6 6 6 6 6 6 6 6 6 5 5 4 4
9 10 10 10 10 10 9 8 8 8 8 8 8 8 8 8 8 8 9 10 11 12 13 14 14 14 14 15 16 16 16 16 16 15 14 13 13 13 14 14 13 13 12 11 11 10 10 9 9 8 7 6 6 5 5 5 5 5 5 5 5 5 4 4 4 4 4 4 3
8 9 9 9 9 9 8 8 8 8 8 8 8 8 8 8 8 9 10 10 11 12 13 14 14 14 15 15 16 17 17 16 16 15 14 14 14 14 14 15 14 13 11 10 10 9 9 9 9 8 7 6 6 5 5 5 5 5 4 4 4 4 4 3 3 3 4 4 3
9 9 9 9 9 8 8 8 8 8 8 8 8 8 8 8 9 10 10 11 12 13 13 13 14 14 15 15 16 17 17 17 16 15 15 14 14 14 14 14 13 12 11 10 10 9 9 9 9 9 8 7 6 6 5 5 5 5 4 4 3 3 3 3 3 3 3 3 4
9 9 9 9 8 9 9 9 9 9 8 8 8 8 8 9 9 10 10 11 11 12 12 13 13 14 14 15 16 16 16 16 15 15 14 14 13 13 12 12 11 10 10 10 10 10 10 10 10 9 8 7 7 6 5 5 5 5 4 4 4 3 3 2 2 2 2 2 3
Wind_Direction
208 207 207 206 203 201 199 198 195 192 189 186 184 181 178 174 172 182 185 179 174 179 187 192 198 207 217 227 230 228 225 225 225 224 220 215 211 209 208 210 213 214 214 211 209 208 206 202 199 194 190 187 182 175 165 158 152 151 150 148 144 142 140 136 134 135 138 142 144
207 207 205 203 201 198 195 189 182 181 183 182 179 178 176 176 185 197 200 196 194 197 201 207 214 221 229 232 228 223 219 220 222 223 220 215 210 207 206 207 208 210 212 212 207 201 197 195 192 187 180 176 172 166 159 155 151 149 147 144 141 139 134 128 125 127 130 132 135
206 206 204 200 197 193 188 181 176 173 167 161 163 165 166 172 187 199 204 203 205 207 212 218 226 231 231 228 222 216 211 209 212 213 211 207 203 200 198 197 200 202 205 205 196 189 185 186 185 181 174 170 167 163 158 155 152 147 141 138 139 137 132 126 124 125 125 125 126
207 207 203 200 196 192 188 181 177 173 163 151 152 156 162 173 185 194 199 203 207 210 214 219 223 224 221 218 212 207 202 200 199 200 198 196 192 190 189 190 190 191 194 197 190 181 178 178 177 174 169 165 163 161 158 156 152 145 138 135 133 131 126 123 123 123 122 121 122
211 211 207 202 198 194 187 177 172 172 173 171 167 166 168 174 178 183 189 195 198 202 206 211 213 212 209 205 200 195 191 189 188 188 188 186 183 181 181 182 182 181 184 188 189 185 178 173 170 166 161 159 156 154 154 156 153 145 136 132 128 124 122 119 118 119 120 121 121
216 216 210 200 190 179 170 161 157 162 171 173 166 162 165 170 172 175 178 181 185 192 197 200 204 203 199 195 190 186 181 178 177 177 177 176 175 173 173 174 175 174 175 179 183 184 180 173 166 161 157 155 151 150 151 153 152 146 138 129 125 123 121 117 116 117 119 119 118
195 190 177 168 155 149 148 149 152 157 162 164 163 163 165 167 168 169 171 176 180 184 188 191 195 197 196 192 186 180 174 169 167 168 168 167 168 168 167 168 170 170 171 172 172 172 171 169 162 156 153 152 147 144 145 147 149 147 139 130 127 125 123 121 121 121 121 121 120
157 149 144 145 149 150 151 153 154 155 156 158 160 161 161 162 163 166 171 176 178 181 185 188 191 193 194 191 185 177 169 163 160 160 160 161 162 163 164 165 167 168 168 168 166 164 162 160 156 150 147 146 141 139 139 141 142 139 133 126 123 123 124 122 122 122 123 124 125
141 139 140 142 145 146 147 149 152 153 154 154 155 155 157 159 163 166 168 170 174 179 182 184 187 190 191 187 181 173 165 158 154 153 153 155 156 156 158 160 161 162 162 162 161 160 157 153 147 143 140 138 135 133 134 135 133 130 125 119 115 114 115 116 117 118 121 124 124
128 131 135 136 137 140 144 146 149 152 152 150 150 153 156 159 161 163 163 165 169 171 171 174 179 182 181 178 173 167 160 155 151 149 149 149 150 150 151 153 154 153 152 152 152 152 150 145 137 132 131 130 128 127 129 130 127 122 117 113 109 106 106 108 111 112 114 116 116
119 124 127 129 131 136 141 142 143 146 147 145 145 146 150 152 153 155 157 161 159 156 155 162 168 169 166 163 161 157 153 150 147 146 144 144 144 144 144 145 147 145 142 140 140 140 138 134 128 124 122 123 123 123 123 124 122 117 111 107 105 102 100 101 104 104 104 105 104
110 116 121 125 129 134 137 137 136 136 137 137 136 137 139 140 142 147 151 152 147 144 145 151 156 157 155 151 148 146 143 140 139 138 137 135 135 136 136 137 137 136 133 131 131 130 128 124 121 118 117 117 117 117 116 117 115 110 106 102 101 98 95 94 96 97 100 100 98
103 108 113 119 125 130 131 131 129 128 127 128 128 129 130 132 136 141 145 145 142 140 139 143 147 148 145 141 139 136 133 131 130 129 127 126 126 126 127 128 128 127 125 124 124 124 122 119 117 114 112 110 110 109 109 109 108 106 103 101 98 95 92 90 92 96 100 101 99
97 100 105 112 119 123 125 124 122 121 120 120 122 124 125 127 132 137 141 140 138 136 136 136 137 137 135 133 130 127 125 123 122 121 120 118 119 119 119 120 120 120 119 118 118 118 117 115 113 111 108 105 104 104 105 105 103 103 102 100 97 94 91 90 92 95 98 98 98
91 94 99 106 112 116 118 118 117 117 116 115 117 120 121 122 126 132 135 136 136 135 134 130 126 126 126 125 122 118 116 115 114 113 112 111 112 112 113 113 114 114 114 113 113 112 111 110 109 108 107 104 104 103 104 104 103 102 101 100 98 96 95 92 92 92 92 92 91
87 89 94 99 105 109 112 113 114 114 113 113 115 117 117 117 120 124 128 129 131 130 127 123 119 117 116 116 114 111 109 108 108 107 106 105 106 107 107 107 107 108 109 109 109 108 108 107 107 107 106 106 106 106 106 106 105 104 102 100 99 98 97 96 92 89 86 84 83
83 85 89 94 98 102 105 108 110 111 111 112 115 115 115 114 116 118 120 122 123 122 119 116 114 111 109 108 109 107 105 104 104 103 102 102 103 103 103 103 104 105 106 106 106 106 106 106 106 106 107 108 108 109 109 109 108 107 105 102 100 99 98 97 92 87 83 79 77
80 82 86 89 93 96 99 102 105 107 109 111 112 113 113 113 114 115 116 117 117 117 115 113 111 110 108 106 106 104 102 100 100 100 100 100 101 102 102 101 102 103 104 104 104 104 105 106 107 108 109 111 112 113 113 112 110 109 108 106 104 103 101 97 93 86 81 76 73
78 81 83 86 89 93 96 99 102 105 108 110 112 113 113 112 112 112 112 113 114 114 113 111 110 109 108 106 105 102 100 98 97 97 97 97 98 99 99 99 100 102 103 103 103 104 105 106 107 109 111 113 114 114 113 111 110 109 108 107 106 104 100 96 92 88 83 79 75
76 78 81 84 89 92 95 98 101 104 108 111 113 114 114 114 113 111 108 108 110 111 110 109 108 106 105 104 102 100 98 96 95 95 94 94 94 95 95 96 96 97 98 99 100 101 102 104 105 107 108 108 108 107 105 105 104 103 103 102 101 99 96 94 91 90 87 83 80
75 77 80 84 89 93 96 100 103 106 109 112 113 114 114 114 112 109 107 107 108 108 106 105 104 103 102 100 99 97 97 96 95 95 95 95 94 94 95 95 94 93 93 94 95 96 97 98 99 100 101 100 99 98 97 96 95 95 94 94 94 93 92 91 90 88 87 84 82
75 78 81 85 89 93 97 100 103 106 108 110 111 112 113 112 110 108 107 107 106 104 102 101 101 101 100 99 98 97 97 97 96 96 96 96 96 96 96 96 96 95 95 94 94 94 94 94 94 95 95 94 93 92 92 92 91 90 89 89 89 89 89 88 87 86 84 82 82
76 79 83 87 90 94 97 100 102 104 105 107 108 109 109 109 108 108 107 105 103 102 101 100 100 100 100 99 98 98 98 97 97 97 97 96 95 94 94 94 94 94 94 95 96 96 95 94 93 93 92 91 90 89 89 90 90 89 89 88 88 87 87 86 84 81 78 76 77
78 81 85 88 92 95 98 100 102 102 102 103 104 105 106 106 107 107 106 103 101 100 100 99 100 100 100 99 99 99 99 98 96 95 94 93 92 91 89 89 89 89 90 92 94 95 95 95 94 92 91 90 89 88 88 89 89 89 89 88 88 87 86 84 81 78 75 72 71
79 83 86 89 92 95 97 98 99 99 100 101 103 104 105 106 106 106 104 102 100 99 99 100 101 101 100 100 100 99 98 96 95 93 92 90 88 87 86 85 84 85 86 88 90 92 93 94 94 93 92 91 90 90 89 88 88 87 88 88 89 88 86 83 79 76 74 72 71
81 83 85 88 91 93 93 94 95 96 98 100 102 104 105 105 106 106 105 103 102 100 100 101 101 101 101 101 101 100 98 96 94 93 92 89 87 85 84 83 83 83 84 86 89 91 93 94 96 97 96 95 93 91 89 87 86 86 86 86 87 87 85 82 78 75 73 72 73
80 81 83 87 89 89 90 92 94 95 97 99 100 102 103 105 106 106 105 105 104 103 102 101 102 102 102 102 101 100 99 98 97 95 93 91 88 86 84 83 83 83 84 86 87 89 91 94 96 97 97 95 92 90 87 86 84 83 83 82 82 81 81 80 78 75 73 73 74
78 79 82 85 86 88 90 93 94 94 95 97 98 101 104 106 106 106 106 106 106 105 104 102 101 101 101 100 100 100 100 100 99 97 95 92 90 87 86 85 85 85 85 85 85 86 88 90 91 92 91 90 88 86 85 83 82 81 80 79 78 77 77 76 76 74 72 71 73
78 80 82 83 85 87 89 91 92 93 94 96 98 101 104 106 107 107 107 107 107 105 103 101 100 99 99 99 99 99 100 100 99 97 95 93 90 89 88 87 87 86 86 86 85 86 86 86 86 86 86 86 86 85 84 84 84 82 80 78 76 75 73 72 70 69 68 68 70
79 80 81 81 82 84 85 88 91 94 96 98 99 100 102 105 107 108 108 108 107 106 104 103 101 100 100 100 99 99 98 98 98 97 95 94 92 91 90 90 89 89 88 87 87 87 86 85 85 84 84 85 87 87 87 86 84 82 79 76 74 73 71 69 67 64 63 63 67
80 80 80 79 79 79 81 85 90 95 98 100 100 99 99 100 103 105 107 107 106 106 106 105 104 103 102 101 100 99 99 99 99 98 97 96 96 95 95 94 93 93 91 90 88 87 85 84 84 84 84 85 86 87 86 84 82 79 76 73 71 69 69 67 64 61 59 59 62
83 83 82 80 78 78 80 84 89 93 96 98 100 100 98 98 100 102 103 104 104 105 105 106 106 105 103 101 100 101 102 103 103 103 102 101 100 99 98 97 96 94 92 89 86 84 82 81 81 81 83 84 85 85 85 83 80 77 74 71 68 67 66 65 64 61 57 56 57
86 87 86 84 83 82 83 85 88 90 92 94 96 97 97 98 98 98 99 100 101 103 104 106 106 105 103 102 101 102 104 106 107 106 105 103 101 99 97 95 93 91 88 84 81 78 77 76 77 78 79 80 80 80 79 77 75 73 71 69 66 66 65 65 63 60 55 53 53
87 88 88 87 87 86 86 87 89 91 91 91 93 92 91 92 94 94 95 98 101 104 105 106 106 106 105 105 104 105 106 106 106 106 104 102 99 96 94 91 89 86 82 78 75 72 71 70 71 71 72 72 72 72 71 70 69 68 67 66 66 66 65 64 62 58 53 50 49
87 87 87 87 87 87 87 88 91 94 94 91 92 92 91 89 89 91 94 98 102 104 105 106 107 107 106 106 105 105 104 104 103 102 101 100 97 94 92 90 87 84 79 74 70 67 64 62 63 63 63 64 65 65 66 66 65 64 64 65 65 64 64 63 60 57 53 51 48
89 88 86 85 85 85 85 86 89 92 93 90 90 92 94 93 93 96 98 100 101 102 102 104 105 105 105 103 101 100 100 101 102 101 100 98 96 94 92 89 86 81 76 71 66 61 57 54 54 54 57 59 61 62 63 63 62 62 62 63 64 64 64 63 61 58 56 55 54
89 89 88 86 84 83 83 85 86 86 86 86 87 89 91 92 93 96 100 101 100 99 98 99 98 98 98 97 96 96 98 101 102 102 101 99 97 96 94 92 87 82 75 68 63 58 53 50 49 50 55 59 62 63 63 63 62 62 62 63 64 66 66 66 64 59 56 56 63
86 89 90 89 87 86 86 86 84 83 82 83 85 88 90 92 90 93 96 99 99 99 98 96 95 93 93 93 93 93 96 98 100 100 100 100 101 101 101 99 96 90 80 71 65 60 56 52 49 50 55 62 65 66 64 63 62 62 64 66 69 71 72 73 70 64 55 47 54
87 91 93 93 92 90 88 85 82 81 82 84 86 87 89 90 89 91 93 96 98 99 98 97 95 93 93 92 92 92 93 95 96 95 94 95 97 99 99 99 98 93 85 74 67 60 58 57 52 50 52 59 65 66 64 61 59 59 63 67 71 76 77 77 76 69 60 48 42
90 92 93 93 92 90 86 83 81 81 83 84 85 86 87 88 90 92 93 95 97 98 98 96 96 96 96 95 95 94 94 94 94 91 88 89 90 90 90 90 88 84 77 67 60 55 53 56 55 51 50 54 60 63 61 55 50 51 55 59 64 69 71 71 70 65 59 55 47
88 88 88 86 85 84 83 81 80 80 81 82 82 83 86 89 91 93 94 94 96 97 97 97 97 98 99 99 99 98 96 94 91 88 86 87 88 88 87 85 82 76 68 61 55 51 51 52 54 52 49 50 54 57 55 48 41 39 43 47 51 54 54 53 51 49 47 45 46
Height
753 754 755 755 756 757 757 758 758 758 758 758 758 759 759 759 759 759 759 760 760 761 761 762 763 764 765 766 766 767 767 767 767 767 766 766 766 767 767 768 769 770 770 771 772 772 773 773 773 774 774 775 775 776 776 777 777 777 777 778 779 780 781 781 782 783 783 784 785
752 753 754 755 755 756 756 756 757 757 758 758 758 758 759 759 759 759 759 760 760 761 762 762 763 764 764 765 766 766 766 766 766 766 766 766 766 766 766 767 768 769 769 770 772 772 772 772 773 773 774 774 775 775 776 777 777 777 777 778 779 780 781 781 782 783 784 784 785
752 753 754 754 754 754 755 755 756 757 757 758 758 758 758 758 759 759 759 760 761 761 762 763 763 764 764 765 765 765 766 766 766 765 765 765 765 765 766 766 767 768 769 770 771 772 772 772 772 773 774 774 774 775 776 777 777 777 778 778 779 780 781 781 782 783 784 784 786
751 752 753 753 753 753 754 754 755 756 757 756 756 757 757 758 758 759 759 760 761 762 762 763 763 764 764 764 765 765 765 765 765 765 765 765 765 765 765 766 766 767 768 770 771 772 772 772 772 772 773 774 774 774 775 777 777 778 778 779 779 780 780 781 782 783 784 785 786
750 751 751 751 752 752 753 754 755 756 756 756 756 757 757 758 758 759 760 761 761 762 762 763 763 764 764 764 765 765 765 765 764 764 764 764 764 765 765 765 765 766 768 769 770 771 772 772 772 772 773 774 774 774 775 776 777 778 778 779 779 780 780 781 782 783 784 785 786
750 750 751 750 751 751 751 753 754 755 756 756 757 757 758 758 759 759 760 761 762 762 763 763 764 764 764 764 764 764 764 764 764 764 764 764 764 764 764 764 765 766 767 769 770 771 772 772 772 772 773 773 774 774 775 776 777 778 778 779 779 780 781 782 783 784 785 786 787
749 750 750 750 749 749 750 751 753 754 755 756 757 758 758 759 759 760 760 761 762 762 763 763 764 764 764 764 764 764 764 764 764 764 764 764 764 764 764 764 765 766 767 768 769 770 771 772 772 772 773 773 774 774 775 776 777 777 778 779 780 781 781 782 783 784 785 786 787
748 749 749 749 749 749 750 751 752 754 755 756 757 758 759 759 759 760 761 761 762 762 763 763 764 764 764 764 764 764 764 764 764 764 764 764 764 764 764 764 765 766 767 768 768 769 770 771 771 772 773 773 774 775 776 776 777 777 778 780 781 781 782 782 783 784 786 787 788
748 748 748 749 749 749 750 751 753 754 756 757 758 758 759 759 760 760 761 762 762 763 763 764 764 764 764 764 764 764 764 764 764 764 764 764 764 764 764 764 765 766 767 768 768 769 769 770 771 772 773 774 774 775 776 777 777 778 779 780 781 782 783 783 784 785 786 788 788
748 748 749 749 750 750 751 752 753 755 756 757 758 759 759 760 760 761 761 762 762 763 763 764 764 764 764 764 764 765 765 765 765 764 764 764 764 764 764 765 766 767 768 769 769 769 769 770 771 772 773 774 774 775 776 777 778 779 780 781 782 783 783 784 785 786 788 788 789
748 749 749 750 750 751 752 753 754 755 756 758 758 759 759 760 760 761 762 762 763 763 764 764 764 764 764 765 765 765 765 765 765 765 765 764 764 764 764 765 766 767 768 769 769 769 770 771 772 773 774 774 775 776 777 778 779 780 781 782 783 784 784 785 787 788 789 789 790
749 749 750 750 751 752 752 753 755 756 757 758 759 759 760 760 761 761 762 762 763 763 764 764 765 765 765 765 765 766 766 766 766 765 765 765 765 765 765 766 767 768 769 769 770 770 771 772 773 774 775 776 776 777 778 779 780 781 783 784 784 785 786 787 788 789 789 790 790
750 750 751 751 752 752 753 754 756 757 758 759 759 760 761 761 762 762 762 763 763 764 764 764 765 765 766 766 766 766 767 767 767 766 766 766 766 766 766 767 768 769 769 770 770 771 771 772 774 775 776 777 778 779 779 780 781 783 784 785 785 786 787 788 789 790 790 791 791
751 751 752 752 752 753 754 755 757 758 759 759 760 761 761 762 762 763 763 763 764 764 765 765 766 766 766 767 767 767 767 767 767 766 766 767 767 767 768 769 769 769 770 771 771 772 772 773 775 776 777 778 779 780 781 782 783 784 784 785 785 786 787 788 789 790 791 791 791
752 753 753 753 754 754 755 756 758 759 759 760 761 762 762 763 763 763 763 764 764 765 765 766 766 767 767 768 768 768 768 768 768 767 767 768 768 769 769 770 770 771 771 772 772 772 773 774 776 777 778 779 780 781 782 782 783 784 785 785 785 786 787 789 790 791 791 792 791
754 754 754 754 755 755 756 757 759 759 760 761 762 762 763 763 764 764 764 764 765 766 766 766 767 768 768 769 769 769 769 769 769 769 769 769 769 770 770 771 772 772 772 772 773 773 774 775 777 778 778 779 780 781 782 783 783 784 785 785 785 786 787 789 790 791 792 792 792
755 756 756 756 757 757 758 759 759 760 761 762 762 763 763 764 764 765 765 766 766 767 767 767 768 769 769 769 770 770 770 770 769 770 770 770 771 771 772 773 773 773 773 774 774 775 776 777 778 779 779 780 781 782 783 783 784 784 784 785 785 787 788 789 790 791 792 793 793
757 757 758 758 759 759 759 760 761 761 762 762 763 764 764 765 765 766 766 767 767 768 768 768 769 769 770 770 771 771 771 771 771 771 771 772 772 773 773 774 774 774 774 775 775 776 777 778 779 779 780 782 782 783 783 784 784 784 785 785 786 787 788 789 790 791 792 793 793
759 759 759 760 760 761 761 762 762 763 763 763 764 764 765 766 766 767 767 768 769 769 769 769 769 770 771 771 771 772 772 772 772 772 773 773 774 774 774 775 775 775 776 776 777 778 779 779 780 781 782 783 784 784 784 784 785 785 786 786 787 788 789 789 790 791 793 794 794
761 761 761 761 762 762 762 763 763 764 764 764 765 765 766 767 767 768 769 769 769 769 770 770 770 771 772 772 772 773 773 773 774 774 774 774 775 776 776 776 777 777 777 778 779 779 780 781 782 783 784 784 784 784 785 785 786 786 786 786 787 788 789 790 791 792 794 794 794
762 763 763 763 763 763 764 764 764 765 765 766 766 767 767 768 768 769 769 770 770 771 771 771 772 773 774 774 774 774 774 775 775 775 775 776 777 777 778 778 778 778 779 779 780 781 782 783 783 784 785 785 785 785 786 786 787 787 787 787 788 789 790 791 792 793 794 795 795
764 764 764 764 764 764 765 765 765 766 766 767 768 768 769 769 769 770 770 771 771 772 772 773 774 774 775 775 775 775 776 776 776 777 777 777 778 779 779 779 779 779 780 781 782 783 783 784 785 785 786 786 786 786 787 788 788 788 788 788 789 789 791 792 793 794 795 795 795
765 765 766 766 766 766 766 766 767 767 768 769 769 769 770 770 771 771 771 772 772 773 774 774 775 776 776 776 776 776 777 777 778 778 778 779 779 779 780 780 780 780 781 782 783 784 784 785 786 786 787 787 787 788 788 789 789 789 789 789 790 791 792 793 794 795 795 795 795
767 767 767 767 767 767 767 768 768 769 769 770 770 771 771 772 772 772 773 773 773 774 775 776 777 777 777 777 778 778 779 779 779 779 780 780 780 781 781 781 781 782 783 783 784 785 785 786 786 787 787 788 788 789 789 790 790 790 790 790 791 792 793 794 795 795 795 795 795
769 769 769 769 769 769 769 769 769 770 770 771 772 772 773 773 774 774 774 774 774 775 776 778 778 779 779 779 779 779 780 780 780 781 781 781 782 782 782 782 783 784 784 785 785 786 786 787 787 788 788 789 789 790 791 791 791 791 791 792 792 794 794 795 795 795 795 796 796
770 770 770 770 770 770 770 770 771 771 772 772 773 773 774 774 775 775 775 775 776 777 778 779 779 780 780 780 781 781 781 782 782 782 783 783 783 783 784 784 784 785 786 786 787 787 788 788 788 789 789 789 790 791 791 791 791 792 792 793 794 794 795 795 796 796 796 796 797
772 771 771 771 771 771 771 772 772 773 773 774 774 775 775 776 776 776 776 777 777 778 779 780 781 781 782 782 782 782 783 783 783 784 784 784 784 785 785 786 786 786 787 788 788 789 789 789 789 789 790 790 791 791 792 792 792 793 793 794 794 795 795 796 796 796 797 797 797
773 773 773 773 773 773 773 773 774 774 774 775 776 776 777 777 777 778 778 779 779 779 780 781 781 782 783 783 783 784 784 784 784 785 785 785 786 786 787 787 787 788 789 789 790 790 791 791 791 791 791 791 791 792 792 793 793 794 794 795 795 795 796 796 797 797 797 798 798
775 774 774 774 774 775 775 775 775 775 776 777 777 778 778 779 779 779 780 780 780 781 781 782 782 783 783 784 784 784 785 785 785 786 786 786 787 787 788 789 789 789 790 791 791 792 792 792 792 792 792 792 792 792 793 794 794 795 795 796 796 796 796 797 797 797 798 798 798
777 777 777 777 777 777 777 777 777 777 778 779 779 779 780 780 780 781 781 782 782 782 782 783 783 784 784 784 785 785 786 786 786 786 787 787 788 789 789 790 790 791 792 793 793 793 794 793 793 793 793 793 793 793 794 795 795 796 796 796 796 796 797 797 797 798 798 798 799
779 779 779 779 779 779 779 779 779 779 780 780 781 781 782 782 783 783 783 783 783 783 784 784 784 785 785 785 785 786 787 787 787 788 788 789 789 790 791 791 792 793 794 794 794 794 794 794 794 793 793 793 794 794 795 795 796 796 796 796 797 797 797 797 798 798 798 799 799
781 781 781 781 781 781 781 781 781 781 781 782 783 783 784 784 784 784 784 784 784 784 784 785 785 786 786 786 787 787 788 789 789 789 790 790 791 792 792 793 794 794 794 795 795 794 794 794 794 794 794 794 794 795 795 795 796 796 796 797 797 797 797 798 798 798 799 799 799
782 782 782 783 783 783 783 783 783 783 783 784 784 785 785 786 786 785 785 785 785 785 785 786 786 787 787 787 788 789 789 790 790 791 791 792 792 793 793 794 794 795 795 795 795 795 795 795 795 795 795 795 795 795 795 796 796 796 797 797 797 797 798 798 798 799 799 799 799
784 784 784 784 784 784 785 785 785 785 786 786 786 786 787 787 787 786 786 786 786 787 787 787 787 788 788 789 789 790 790 791 791 791 792 792 793 793 794 794 795 795 795 795 795 795 795 795 795 795 796 796 796 796 796 796 796 797 797 797 798 798 798 798 798 799 799 799 799
785 785 785 785 785 785 785 786 787 787 788 788 787 787 788 789 788 788 788 788 788 788 788 788 789 789 789 790 790 791 791 791 792 792 793 793 794 794 794 795 795 796 796 796 796 796 796 796 796 796 796 796 796 796 796 797 797 797 798 798 798 798 798 798 799 799 799 799 799
785 785 785 785 785 786 786 787 788 788 788 788 788 789 789 789 789 789 789 789 789 789 789 789 790 790 790 791 791 791 791 792 792 793 794 794 794 794 795 795 796 796 796 796 796 796 797 797 797 797 797 797 797 797 797 797 798 798 799 799 799 799 799 799 799 799 799 799 800
786 786 786 786 786 787 787 788 789 789 789 789 789 789 789 790 790 790 790 789 789 789 789 790 790 791 791 791 792 792 792 793 793 794 794 795 795 795 795 796 796 797 797 797 797 798 798 798 798 798 798 798 798 798 798 799 799 799 799 799 799 799 799 799 800 800 800 800 800
787 787 787 787 787 788 789 789 789 789 789 789 790 790 790 790 790 790 790 790 790 790 790 791 791 791 792 792 792 793 793 794 794 794 795 795 795 796 796 796 797 798 798 799 799 799 799 799 799 799 799 799 799 799 799 799 800 800 800 800 800 800 800 800 800 800 800 800 800
789 788 788 789 789 789 790 790 790 790 790 790 790 790 790 790 790 790 790 790 790 790 791 791 792 792 792 792 793 793 794 794 795 795 795 796 796 797 797 798 799 799 800 800 800 800 800 800 800 800 799 799 799 800 800 800 800 800 800 801 801 801 801 801 801 801 801 801 801
789 789 789 789 790 790 790 790 790 790 790 790 790 790 790 790 790 790 790 790 790 791 791 792 792 792 793 793 794 794 795 795 796 796 797 797 798 798 799 799 800 800 801 801 801 801 801 801 800 800 800 800 800 800 800 801 801 801 801 801 801 801 801 801 801 801 801 801 801
790 790 790 790 790 790 790 790 790 790 791 791 791 791 791 790 790 790 790 791 791 792 792 793 793 794 794 794 795 795 796 796 797 798 798 799 799 799 800 800 801 801 802 802 802 802 801 801 801 801 801 801 801 801 801 801 801 801 801 801 801 801 801 802 802 802 802 802 801